Location: Unspecified
(43.8044°N, 11.0278°E)
Time: 20:06:53
(UTC+01:00)

Resurs 1-4 Rocket - Visible Passes

Search period start: 26 February 2017 00:00
Search period end: 08 March 2017 00:00
Orbit: 801 x 813 km, 98.5° (Epoch: 26 February)

Date Brightness Start Highest point End Pass type
(mag) Time Alt. Az. Time Alt. Az. Time Alt. Az.
26 Feb 4.6 03:49:33 10° N 03:49:53 12° N 03:49:53 12° N visible
27 Feb 4.7 03:24:41 10° N 03:25:09 12° N 03:25:09 12° N visible
28 Feb 4.8 03:00:00 10° NNE 03:00:25 12° NNE 03:00:25 12° NNE visible
01 Mar 5.0 02:35:29 10° NNE 02:35:40 11° NNE 02:35:40 11° NNE visible
01 Mar 4.4 04:16:23 10° NNW 04:16:46 11° NNW 04:16:46 11° NNW visible
02 Mar 4.4 03:51:14 10° N 03:52:02 14° N 03:52:02 14° N visible
03 Mar 4.4 03:26:20 10° N 03:27:17 15° N 03:27:17 15° N visible
04 Mar 4.6 03:01:38 10° N 03:02:33 15° N 03:02:33 15° N visible
05 Mar 4.8 02:37:06 10° NNE 02:37:48 14° NNE 02:37:48 14° NNE visible
05 Mar 4.3 04:18:05 10° NNW 04:18:55 13° NNW 04:18:55 13° NNW visible
06 Mar 5.0 02:12:46 10° NNE 02:13:05 12° NNE 02:13:05 12° NNE visible
06 Mar 4.2 03:52:54 10° N 03:54:11 16° NNW 03:54:11 16° NNW visible
07 Mar 4.2 03:27:59 10° N 03:29:26 18° N 03:29:26 18° N visible
